Regional Weather Roundup
Issued by NWS

Home | Current Version | Previous Version | Graphics & Text | Print | Product List | Glossary On
Versions: 1 2 3 4 5 6 7 8 9 10 11 12 13 14 15 16 17 18 19 20 21 22 23 24 25 26 27 28 29 30 31 32 33 34 35 36 37 38 39 40 41 42 43 44 45 46 47 48 49 50
000
ASUS43 KTOP 070508
RWRKS

WEATHER ROUNDUP FOR KANSAS
NATIONAL WEATHER SERVICE GOODLAND KS
1100 PM CST SAT FEB 06 2016

NOTE:  "FAIR" INDICATES FEW OR NO CLOUDS BELOW 12,000 FEET WITH NO
SIGNIFICANT WEATHER AND/OR OBSTRUCTIONS TO VISIBILITY.

KSZ001>006-013>018-027>032-041>047-070600-
NORTHWEST KANSAS

CITY           SKY/WX    TMP DP  RH WIND       PRES   REMARKS
GOODLAND       CLOUDY    35  23  61 W15       30.06R WCI  25
HAYS           CLOUDY    36  19  51 SW5       30.06S
HILL CITY      CLOUDY    38  26  62 W10       30.04S WCI  31
RUSSELL        CLEAR     35  25  66 SW12      30.03F WCI  27
$$

KSZ061>065-074>080-084>089-070600-
SOUTHWEST KANSAS

CITY           SKY/WX    TMP DP  RH WIND       PRES   REMARKS
DODGE CITY     CLEAR     38  14  37 SW13      30.08F WCI  30
ELKHART          N/A     39  10  30 SW12        N/A  WCI  32
GARDEN CITY    CLEAR     32  18  56 SW9       30.08S
GREAT BEND     CLEAR     36  19  51 SW8       30.07F
LIBERAL        CLEAR     36  14  41 SW13      30.11S WCI  27
PRATT          PTCLDY    31  18  58 SW8       30.09F
$$

KSZ066>073-081>083-090>101-070600-
SOUTHEAST KANSAS

CITY           SKY/WX    TMP DP  RH WIND       PRES   REMARKS
CHANUTE        CLOUDY    35  28  75 S10       30.16F WCI  27
COFFEYVILLE    CLOUDY    37  28  70 S8        30.20F
HUTCHINSON     CLEAR     37  25  61 S8        30.10F
MEDICINE LODGE   N/A     36  20  52 S8        30.12F
NEWTON         PTCLDY    37  23  56 S13       30.12F WCI  29
PARSONS        CLOUDY    36  27  69 S3        30.20F
WICHITA INTL   PTCLDY    40  25  55 S12       30.13S WCI  33
WICHITA JABRA  PTCLDY    39  25  57 S14       30.12F WCI  31
WICHITA MCCONL PTCLDY    36  26  66 S13       30.13F WCI  28
WINFIELD       CLOUDY    38  27  64 S7        30.17F
$$

KSZ007>012-019>026-033>040-048>060-102>105-070600-
NORTHEAST KANSAS

CITY           SKY/WX    TMP DP  RH WIND       PRES   REMARKS
CONCORDIA      CLEAR     40  23  50 SW15      30.00F WCI  32
EMPORIA        PTCLDY    36  26  67 S14       30.09F WCI  27
LAWRENCE       PTCLDY    41  27  57 SW17G23   30.10S
MANHATTAN      MOCLDY    40  27  59 SW14      30.05F WCI  32
MARYSVILLE     CLOUDY    37  27  65 SW10      30.00F WCI  30
OLATHE IND     PTCLDY    39  27  62 S14       30.10F WCI  31
OLATHE EXE     PTCLDY    37  26  64 SW12      30.09F WCI  29
SALINA         CLOUDY    40  23  50 S13       30.06F WCI  32
TOPEKA BILLARD MOCLDY    42  26  53 SW10      30.08S
TOPEKA FORBES  PTCLDY    40  27  59 SW13      30.07F WCI  32
$$



USA.gov is the U.S. government's official web portal to all federal, state and local government web resources and services.